Voltar ao catálogo

STARLINK-5685

AtivoComunicaçõesVLEO
NORAD 55477·PAYLOAD·🇺🇸 United States

Lançado Feb 2, 2023 de Cape Canaveral Space Force Station

Loading…

Próximas Passagens (próximas 24 horas)

TLE

AtualizadoSource: CelesTrak SupGP

Época: Sep 15, 2026, 02:01 UTC

1 55477C 23015AE  26258.08451389  .00028653  00000+0  10379-2 0  2583
2 55477  43.0008 331.6174 0001457 263.3579  72.9744 15.27562166    17

Acompanhe STARLINK-5685 em tempo real com AllMySat

Download on the App Store